{"data":{"norad_id":54101,"intl_designator":"2022-136BC","name":"STARLINK-5204","alt_names":[],"object_type":"PAYLOAD","status":"ACTIVE","operator":null,"country":"US","launch_date":"2022-10-20","launch_site_code":"AFETR","launch_vehicle":null,"mission":null,"orbit_class":"UNKNOWN","rcs_meters":null,"size_class":null,"mass_kg":null,"dimensions":null,"purposes":["comms"],"wikipedia_slug":null,"has_3d_model":false,"image_url":null,"decayed_at":null,"tle_current":{"epoch":"2026-09-20T23:21:44.825472Z","epoch_age_seconds":48385,"freshness":"FRESH","line1":"1 54101U 22136BC  26263.97343548  .00000321  00000+0  22108-4 0  9999","line2":"2 54101  53.1592 148.6367 0001104  95.1172 264.9956 15.31705346216863","mean_motion":15.31705346,"eccentricity":0.0001104,"inclination_deg":53.1592,"raan_deg":148.6367,"arg_perigee_deg":95.1172,"mean_anomaly_deg":264.9956,"bstar":2.2108e-5,"rev_number":21686,"period_min":94.012859833682,"perigee_km":469.96794486325,"apogee_km":471.48017338511,"semimajor_km":6848.8610591242,"source":"CELESTRAK","updated_at":"2026-09-21T09:00:33.085752Z"}}}